Change the Weather History Date:

Thursday, June 13, 2013

  Actual Average Record
Temperature  
Mean Temperature 63 °F 60 °F  
Max Temperature 76 °F 75 °F 91 °F (1974)
Min Temperature 50 °F 45 °F 32 °F (1990)
Degree Days  
Heating Degree Days 2 6  
Month to date heating degree days 43 90  
Since 1 June heating degree days 43 90  
Since 1 July heating degree days 7458 7781  
Cooling Degree Days 0 1  
Month to date cooling degree days 21 4  
Year to date cooling degree days 25 6  
Since 1 June cooling degree days 21 4  
Growing Degree Days 14 (Base 50)    
Moisture  
Dew Point 42 °F    
Average Humidity 52    
Maximum Humidity 83    
Minimum Humidity 21    
Precipitation  
Precipitation 0.02 in 0.04 in 0.37 in (2001)
Month to date precipitation 0.12 0.64  
Year to date precipitation 1.90 5.49  
Sea Level Pressure  
Sea Level Pressure 29.88 in    
Wind  
Wind Speed 13 mph (SW)    
Max Wind Speed 30 mph    
Max Gust Speed 40 mph    
Visibility 10 miles    
Events Rain    
T = Trace of Precipitation, MM = Missing Value Source: NWS Daily Summary

Daily Weather History Graph

Daily Weather History Graph

Search for Another Location

Airport or City:

Trip Planner

Search our weather history database for the weather conditions in past years. The results will help you decide how hot, cold, wet, or windy it might be!

Date:

Astronomy

Jun. 13, 2013 Rise Set
Actual Time 5:46 AM MDT 9:10 PM MDT
Civil Twilight 5:10 AM MDT 9:46 PM MDT
Nautical Twilight 4:24 AM MDT 10:32 PM MDT
Astronomical Twilight 3:26 AM MDT 11:31 PM MDT
Moon 10:34 AM MDT (6/13) No Moon Set
Length of Visible Light 16h 35m
Length of Day
15h 23m
Waxing Crescent, 22% of the Moon is Illuminated
Jun 13
Waxing Crescent
Jun 16
First Quarter
Jun 23
Full
Jun 29
Last Quarter
Jul 8
New

Hourly Weather History & Observations

Time (MDT) Temp. Dew Point Humidity Pressure Visibility Wind Dir Wind Speed Gust Speed Precip Events Conditions
12:53 AM 55.0 °F 48.9 °F 80% 29.88 in 10.0 mi North 9.2 mph - N/A   Mostly Cloudy
1:53 AM 60.1 °F 46.9 °F 62% 29.86 in 10.0 mi SSE 9.2 mph - 0.00 in   Scattered Clouds
2:53 AM 62.1 °F 46.0 °F 56% 29.80 in 10.0 mi NNW 3.5 mph - N/A   Mostly Cloudy
3:53 AM 55.0 °F 48.9 °F 80% 29.83 in 10.0 mi NNW 4.6 mph - N/A   Scattered Clouds
4:53 AM 54.0 °F 48.0 °F 80% 29.86 in 10.0 mi ENE 5.8 mph - N/A   Scattered Clouds
5:53 AM 52.0 °F 46.9 °F 83% 29.86 in 10.0 mi NNE 3.5 mph - N/A   Partly Cloudy
6:53 AM 53.1 °F 48.9 °F 86% 29.88 in 10.0 mi West 5.8 mph - N/A   Scattered Clouds
7:53 AM 55.0 °F 48.9 °F 80% 29.88 in 5.0 mi NNW 4.6 mph - 0.02 in Rain Rain
8:53 AM 63.0 °F 50.0 °F 63% 29.85 in 10.0 mi SE 12.7 mph - 0.00 in   Clear
9:53 AM 62.1 °F 53.1 °F 72% 29.86 in 10.0 mi SW 16.1 mph - N/A   Clear
10:53 AM 64.0 °F 50.0 °F 60% 29.88 in 10.0 mi SW 18.4 mph 24.2 mph N/A   Clear
11:53 AM 64.9 °F 46.0 °F 50% 29.89 in 10.0 mi SSW 18.4 mph - N/A   Clear
12:53 PM 68.0 °F 45.0 °F 43% 29.87 in 10.0 mi SW 19.6 mph 26.5 mph N/A   Clear
1:53 PM 71.1 °F 44.1 °F 38% 29.85 in 10.0 mi SW 19.6 mph 26.5 mph N/A   Clear
2:53 PM 72.0 °F 44.1 °F 37% 29.83 in 10.0 mi SSW 17.3 mph 27.6 mph N/A   Clear
3:53 PM 75.9 °F 32.0 °F 20% 29.83 in 10.0 mi SW 18.4 mph 26.5 mph N/A   Clear
4:53 PM 73.9 °F 33.1 °F 22% 29.83 in 10.0 mi SW 16.1 mph 21.9 mph N/A   Mostly Cloudy
5:53 PM 70.0 °F 28.0 °F 21% 29.86 in 10.0 mi WSW 17.3 mph 25.3 mph N/A   Mostly Cloudy
6:53 PM 62.1 °F 34.0 °F 35% 29.96 in 10.0 mi West 24.2 mph 31.1 mph 0.00 in   Overcast
7:53 PM 57.9 °F 37.0 °F 46% 30.00 in 10.0 mi West 13.8 mph 25.3 mph 0.00 in Rain Light Rain
8:53 PM 61.0 °F 33.1 °F 35% 29.94 in 10.0 mi SSE 10.4 mph 18.4 mph 0.00 in   Overcast
9:53 PM 61.0 °F 33.1 °F 35% 29.94 in 10.0 mi SSE 8.1 mph - N/A   Partly Cloudy
10:53 PM 60.1 °F 32.0 °F 35% 29.94 in 10.0 mi South 11.5 mph - N/A   Clear
11:53 PM 55.9 °F 34.0 °F 44% 29.95 in 10.0 mi SW 11.5 mph - N/A   Clear